Temp
15 15 14 14 14 14 13 13 13 13 12 12 12 12 11 12 12 12 12 11 11 10 10 10 10 10 10 10 10 10 10 10 10 10 10 11 11 10 10 10 10 10 10
15 14 14 13 13 13 13 13 13 12 12 12 12 12 11 11 11 12 12 11 11 10 10 10 9 9 9 10 10 10 10 9 9 10 10 10 10 10 10 10 9 10 10
15 15 14 13 13 13 13 12 12 12 12 11 11 11 11 11 11 12 11 11 10 10 9 9 9 9 9 9 9 9 9 10 10 10 9 9 9 9 9 9 9 9 9
15 14 14 13 13 13 13 12 12 12 12 11 11 11 11 11 11 11 11 11 11 10 9 9 9 9 9 8 8 8 8 8 8 8 8 8 8 8 8 8 7 7 6
14 14 14 14 13 12 12 12 12 12 11 11 11 11 11 11 11 11 11 11 11 10 10 10 9 9 9 8 8 8 8 8 8 8 7 7 7 7 7 6 4 4 3
14 14 14 14 13 12 12 12 12 11 11 11 11 11 11 11 11 11 11 11 10 10 10 9 9 9 8 9 8 8 8 7 7 7 7 6 6 5 4 3 3 3 3
16 15 14 14 13 13 13 12 12 11 11 11 11 10 10 11 11 11 11 10 10 10 9 9 9 8 8 8 7 7 7 7 6 7 6 5 4 3 2 2 3 3 3
16 16 15 15 14 13 13 13 12 12 11 11 11 10 10 10 11 11 11 10 10 9 9 8 8 8 8 7 7 7 7 6 6 6 6 5 3 2 2 2 2 3 3
17 16 16 16 15 14 13 13 13 12 12 11 11 11 10 11 11 11 11 10 10 9 9 9 8 8 7 7 6 6 6 5 5 5 4 4 3 1 1 1 2 2 2
17 16 16 16 15 15 14 13 13 13 12 11 11 11 11 11 11 11 10 11 10 9 9 8 8 7 7 6 6 5 5 5 4 4 3 3 2 0 0 1 1 1 2
17 16 16 16 16 15 15 14 13 12 12 11 11 11 10 10 10 10 10 10 10 9 8 8 7 7 6 5 5 4 4 3 3 3 3 3 2 -1 -0 -0 0 0 1
16 16 16 16 15 15 15 15 14 12 12 11 10 11 10 10 10 10 9 9 10 9 8 7 6 6 5 5 4 4 3 3 2 2 2 2 1 -2 -2 -1 -1 -1 -1
15 15 15 15 15 15 15 15 14 13 11 10 10 10 10 9 9 9 8 7 8 8 7 6 6 5 4 4 3 2 2 1 1 2 2 2 1 0 -2 -3 -3 -2 -2
15 15 15 15 15 14 14 14 14 12 10 10 9 9 8 8 8 8 7 5 6 6 5 4 4 3 3 2 1 1 0 0 1 1 1 1 1 0 -1 -3 -4 -4 -3
14 14 13 14 14 14 14 14 13 11 10 9 8 8 7 5 6 6 5 4 5 4 4 3 3 2 2 1 1 0 -0 -0 -1 -1 -1 -2 -2 -4 -6 -5 -5 -4 -4
14 14 13 13 13 12 11 10 10 9 9 8 8 6 5 5 4 4 3 3 2 2 2 2 1 1 1 1 0 -1 -1 -2 -2 -3 -3 -3 -4 -6 -6 -6 -5 -5 -5
13 12 12 12 11 9 10 10 10 9 8 7 6 5 4 4 3 2 2 1 2 1 1 0 1 -0 0 -0 -1 -1 -1 -2 -2 -2 -3 -3 -5 -7 -6 -6 -6 -6 -5
11 10 9 8 9 9 9 8 8 7 6 5 4 3 2 2 1 1 1 0 2 -1 -2 -1 -1 -0 -1 -1 -3 -2 -3 -4 -4 -4 -3 -4 -4 -5 -5 -6 -7 -6 -6
7 7 7 7 7 7 8 7 5 5 4 3 2 2 1 1 1 0 0 -1 -2 -2 -2 -3 -3 -2 -2 -3 -4 -5 -5 -4 -4 -4 -4 -4 -4 -5 -5 -5 -7 -7 -7
6 6 6 7 6 5 4 4 3 3 2 2 1 1 1 0 0 -0 -1 -0 -1 -2 -2 -3 -4 -5 -6 -5 -6 -6 -7 -6 -6 -4 -4 -5 -4 -5 -4 -5 -5 -5 -5
4 4 4 4 3 3 2 2 2 2 1 1 0 -0 -0 -0 -1 -1 -1 -2 -3 -3 -3 -5 -6 -7 -7 -8 -8 -8 -9 -9 -8 -5 -5 -5 -5 -5 -4 -5 -4 -4 -5
2 1 1 -0 -0 1 0 0 1 1 0 0 -0 -0 -2 -1 -2 -3 -4 -4 -4 -4 -6 -7 -7 -8 -8 -8 -9 -9 -9 -9 -9 -6 -7 -8 -6 -5 -5 -5 -5 -5 -5
0 -0 -1 -1 -0 0 -0 0 0 -0 -0 -1 -1 -2 -3 -3 -3 -4 -4 -4 -5 -6 -6 -7 -8 -8 -9 -8 -8 -8 -8 -9 -9 -6 -7 -8 -6 -6 -6 -6 -5 -5 -5
-1 -1 -1 -1 -1 -1 -1 -1 0 -1 -2 -3 -3 -3 -3 -3 -4 -3 -5 -5 -4 -5 -6 -7 -8 -8 -8 -9 -9 -9 -8 -8 -8 -6 -8 -9 -6 -7 -7 -6 -6 -6 -5
-1 -1 -2 -1 -1 -1 -2 -1 -1 -2 -3 -3 -3 -3 -4 -4 -4 -5 -7 -7 -6 -6 -7 -7 -7 -7 -7 -7 -7 -8 -7 -8 -8 -6 -7 -9 -7 -8 -7 -6 -7 -6 -7
-2 -2 -2 -2 -2 -2 -1 -1 -2 -3 -3 -3 -4 -4 -4 -4 -5 -8 -8 -7 -7 -7 -7 -6 -6 -6 -6 -6 -7 -7 -7 -8 -8 -8 -8 -9 -9 -9 -10 -9 -8 -7 -6
Height
1551 1553 1555 1556 1557 1559 1561 1562 1563 1564 1566 1566 1567 1568 1569 1569 1569 1569 1569 1569 1568 1568 1567 1567 1566 1566 1565 1564 1564 1563 1563 1562 1561 1560 1559 1558 1557 1557 1556 1555 1554 1554 1553
1548 1551 1553 1554 1556 1557 1559 1560 1561 1562 1563 1564 1565 1565 1566 1567 1568 1568 1567 1567 1566 1566 1565 1565 1565 1565 1564 1563 1562 1561 1561 1560 1560 1559 1558 1556 1555 1555 1554 1553 1552 1551 1551
1545 1547 1550 1551 1553 1555 1556 1558 1558 1560 1561 1563 1563 1564 1564 1564 1564 1565 1565 1564 1564 1564 1563 1563 1563 1563 1563 1562 1561 1560 1559 1558 1558 1557 1556 1554 1553 1552 1552 1551 1550 1549 1548
1542 1544 1546 1548 1550 1551 1552 1554 1555 1557 1558 1559 1560 1561 1562 1562 1562 1562 1562 1562 1561 1562 1562 1561 1561 1561 1561 1561 1560 1559 1558 1556 1555 1555 1554 1552 1551 1550 1549 1548 1547 1546 1546
1537 1539 1541 1544 1546 1547 1548 1550 1551 1553 1555 1557 1558 1557 1559 1559 1559 1559 1559 1558 1558 1558 1559 1558 1558 1558 1559 1558 1558 1557 1556 1554 1553 1552 1551 1550 1548 1547 1546 1545 1545 1544 1544
1531 1534 1536 1539 1541 1543 1544 1545 1548 1550 1552 1553 1554 1555 1555 1555 1555 1556 1556 1555 1555 1556 1556 1556 1556 1556 1556 1555 1555 1554 1553 1552 1550 1548 1547 1547 1545 1544 1543 1542 1542 1542 1542
1526 1528 1531 1533 1534 1536 1538 1541 1543 1544 1547 1548 1550 1551 1551 1551 1551 1551 1551 1552 1551 1552 1553 1553 1553 1553 1553 1552 1552 1551 1549 1548 1547 1545 1543 1542 1542 1541 1540 1540 1540 1539 1538
1520 1523 1524 1526 1527 1529 1532 1534 1536 1538 1541 1543 1545 1547 1547 1548 1546 1546 1546 1546 1548 1547 1548 1548 1548 1549 1549 1548 1548 1547 1546 1544 1543 1541 1539 1538 1538 1537 1537 1536 1536 1535 1534
1512 1515 1517 1519 1521 1522 1524 1526 1529 1531 1534 1537 1539 1542 1542 1541 1540 1540 1541 1541 1542 1542 1542 1543 1543 1544 1544 1543 1542 1542 1540 1540 1538 1536 1534 1533 1532 1532 1531 1530 1529 1528 1527
1505 1508 1511 1512 1514 1516 1517 1520 1522 1524 1527 1530 1533 1534 1535 1536 1536 1536 1536 1535 1537 1537 1537 1537 1537 1538 1538 1537 1537 1536 1535 1534 1532 1531 1529 1527 1526 1525 1524 1524 1522 1521 1520
1496 1499 1501 1505 1506 1508 1511 1513 1515 1516 1519 1522 1525 1527 1529 1531 1531 1530 1530 1530 1531 1531 1530 1530 1531 1531 1532 1532 1531 1530 1529 1528 1526 1525 1523 1521 1519 1518 1517 1516 1515 1513 1511
1486 1488 1492 1495 1498 1500 1502 1504 1506 1509 1512 1515 1518 1520 1522 1523 1523 1523 1523 1524 1524 1525 1524 1525 1525 1526 1526 1526 1525 1524 1523 1521 1520 1518 1516 1513 1511 1510 1509 1507 1505 1503 1501
1478 1481 1483 1486 1488 1492 1495 1497 1499 1501 1504 1507 1510 1513 1515 1516 1517 1517 1516 1519 1518 1518 1521 1521 1520 1521 1522 1520 1519 1517 1517 1515 1512 1510 1508 1505 1502 1500 1497 1496 1494 1493 1492
1472 1473 1475 1477 1480 1484 1486 1489 1491 1493 1497 1501 1504 1507 1508 1509 1509 1509 1510 1513 1514 1512 1513 1516 1516 1517 1517 1516 1513 1511 1509 1507 1504 1502 1499 1496 1493 1490 1488 1486 1484 1483 1482
1465 1465 1467 1468 1470 1473 1476 1478 1481 1485 1490 1494 1498 1499 1499 1500 1503 1503 1504 1506 1507 1509 1506 1508 1511 1512 1511 1510 1507 1503 1500 1498 1495 1493 1489 1486 1483 1480 1479 1478 1476 1475 1473
1459 1459 1460 1460 1462 1464 1467 1471 1474 1472 1482 1487 1490 1492 1494 1497 1498 1498 1500 1503 1502 1505 1504 1502 1505 1505 1505 1502 1500 1496 1493 1489 1486 1484 1481 1478 1474 1471 1470 1469 1467 1466 1464
1451 1452 1453 1454 1455 1458 1461 1466 1469 1473 1477 1481 1484 1486 1488 1491 1492 1495 1495 1498 1498 1497 1498 1495 1497 1499 1497 1495 1492 1489 1486 1482 1478 1476 1473 1469 1465 1463 1462 1460 1458 1457 1455
1444 1445 1447 1449 1450 1453 1457 1460 1465 1469 1473 1476 1480 1482 1485 1489 1491 1493 1494 1493 1487 1493 1496 1492 1492 1488 1488 1487 1485 1481 1479 1476 1471 1468 1464 1460 1457 1455 1452 1450 1448 1447 1446
1439 1440 1442 1444 1447 1449 1452 1456 1461 1465 1469 1474 1478 1481 1483 1487 1486 1488 1483 1489 1485 1490 1486 1486 1484 1481 1480 1478 1476 1473 1469 1467 1464 1460 1456 1453 1450 1447 1445 1442 1440 1439 1436
1435 1438 1439 1441 1444 1448 1451 1455 1460 1465 1470 1474 1476 1479 1479 1481 1482 1485 1484 1483 1484 1486 1483 1481 1478 1474 1473 1472 1469 1465 1460 1459 1455 1453 1450 1446 1443 1441 1439 1435 1432 1429 1426
1434 1436 1438 1440 1443 1447 1453 1458 1462 1466 1470 1473 1476 1476 1477 1477 1478 1480 1480 1479 1480 1479 1476 1477 1473 1470 1468 1466 1463 1459 1455 1452 1449 1445 1441 1438 1436 1432 1430 1426 1422 1419 1416
1436 1437 1438 1443 1448 1449 1455 1461 1465 1466 1469 1470 1473 1475 1475 1477 1478 1475 1475 1475 1476 1472 1471 1471 1468 1465 1463 1461 1457 1454 1451 1447 1442 1439 1434 1431 1429 1425 1422 1417 1414 1410 1407
1439 1439 1443 1449 1453 1456 1457 1461 1464 1466 1468 1469 1473 1474 1474 1475 1475 1472 1472 1471 1470 1468 1465 1465 1463 1461 1458 1456 1452 1449 1446 1443 1439 1433 1429 1421 1421 1415 1412 1408 1405 1402 1397
1445 1447 1447 1449 1454 1457 1459 1462 1463 1465 1469 1472 1473 1473 1471 1471 1469 1468 1467 1465 1464 1462 1461 1459 1458 1456 1453 1451 1448 1444 1440 1437 1432 1428 1424 1414 1412 1406 1402 1397 1394 1392 1389
1452 1454 1456 1459 1460 1460 1461 1462 1464 1467 1468 1469 1469 1468 1468 1466 1464 1463 1462 1459 1458 1457 1455 1454 1452 1450 1448 1446 1443 1438 1435 1431 1425 1421 1417 1410 1404 1397 1391 1386 1384 1382 1379
1458 1459 1460 1461 1461 1462 1464 1465 1465 1466 1466 1466 1465 1465 1463 1461 1459 1459 1458 1455 1453 1452 1451 1450 1449 1447 1444 1441 1438 1434 1430 1426 1421 1414 1411 1406 1399 1394 1383 1378 1376 1373 1370
Wind_Speed
17 16 15 14 14 13 12 13 12 11 10 8 7 7 7 7 7 7 7 7 9 11 10 8 5 4 4 4 4 5 6 7 8 7 8 9 9 9 10 11 11 11 11
18 17 17 17 16 14 14 14 13 13 11 10 9 8 8 8 8 8 8 8 8 9 9 7 5 4 5 5 7 9 8 9 8 9 10 11 11 11 11 12 12 12 12
20 19 19 19 18 17 17 17 16 14 13 11 10 9 9 9 9 9 9 8 9 9 9 7 5 5 5 8 8 9 10 11 12 12 13 13 12 12 13 14 14 13 13
21 22 22 21 20 19 19 19 18 16 15 13 12 12 12 11 11 11 10 10 10 10 10 9 7 7 7 7 8 8 11 12 15 15 15 15 15 15 14 13 13 13 12
23 24 24 23 23 23 21 21 21 19 16 15 15 13 14 13 13 12 12 11 11 11 11 10 9 9 9 9 9 10 12 14 15 16 17 16 16 16 14 13 12 12 12
26 24 24 25 26 27 25 24 22 21 19 18 17 16 16 15 15 14 14 13 13 13 12 11 11 11 10 11 11 12 14 15 16 16 17 17 16 15 14 13 12 14 15
26 23 24 26 30 30 28 24 25 24 23 22 19 18 18 18 17 17 16 16 16 15 15 14 14 13 14 14 14 15 16 18 17 17 16 16 16 15 13 14 15 16 17
28 26 27 28 30 31 31 29 30 27 26 25 24 20 14 19 21 21 20 19 19 18 17 17 16 16 17 16 17 19 20 19 19 18 18 17 16 15 15 17 17 19 20
32 31 32 31 31 32 33 31 32 31 30 29 28 21 9 12 13 20 22 21 21 21 20 20 19 19 19 19 20 21 22 21 20 19 19 19 18 18 19 20 21 22 23
36 35 34 34 34 33 34 33 32 34 34 33 30 29 28 20 11 9 16 20 22 23 23 22 21 21 21 22 22 23 24 23 22 23 22 22 22 22 22 23 23 24 25
36 38 37 36 35 36 36 36 35 36 36 36 35 33 31 30 27 24 18 21 23 24 25 24 23 22 22 23 23 24 24 23 24 25 25 28 28 24 24 25 25 26 27
37 41 40 40 39 36 36 36 38 37 36 36 36 33 34 33 31 29 28 27 22 22 23 23 22 22 23 23 23 25 24 26 25 29 30 30 28 25 25 25 26 26 26
34 35 38 41 41 40 38 36 39 38 37 38 37 35 33 33 31 28 29 29 22 22 18 19 20 21 21 21 21 24 25 28 31 32 31 31 31 30 28 26 26 26 26
29 29 30 35 39 40 40 39 39 38 37 38 37 33 32 31 30 29 25 21 20 17 17 16 14 17 18 20 22 23 31 32 32 33 33 33 32 32 31 29 27 27 27
26 30 31 32 35 41 41 40 39 37 33 33 33 33 31 27 28 26 22 21 19 15 13 12 13 16 17 20 26 30 32 33 33 33 33 32 32 29 27 27 26 27 27
26 28 29 31 32 35 38 36 33 30 28 31 32 30 26 26 22 20 18 17 14 18 14 12 14 19 22 26 28 30 32 33 33 32 32 31 30 27 26 26 26 26 27
27 28 28 27 28 28 30 30 28 27 30 29 28 27 25 24 20 17 16 16 16 17 19 20 21 21 23 25 28 30 31 32 33 33 31 31 30 25 25 25 26 27 27
27 26 22 21 22 23 25 26 26 26 26 27 25 23 20 18 15 15 14 15 13 14 18 21 23 23 26 26 29 30 30 31 32 32 30 28 25 25 25 25 25 25 26
15 17 16 18 20 23 26 26 26 27 26 23 19 16 13 12 13 14 13 13 11 15 17 22 26 25 28 28 29 31 31 32 31 27 25 24 23 22 23 24 24 25 27
12 15 17 19 22 24 24 25 25 23 20 17 14 13 12 12 10 12 12 12 14 17 19 23 24 25 26 28 29 30 28 28 29 26 25 23 23 25 25 23 26 27 29
14 16 18 21 23 23 22 21 19 15 13 11 10 9 7 7 7 10 11 12 14 16 18 21 22 23 25 21 23 25 25 23 26 28 30 29 30 31 28 29 28 27 27
11 16 19 22 24 23 19 14 11 11 10 8 6 5 5 6 8 9 10 11 14 15 17 20 23 22 21 23 23 21 23 25 27 28 34 34 33 34 30 27 26 26 26
14 16 19 18 16 14 14 13 10 7 5 2 1 2 3 6 9 10 12 13 14 14 15 17 20 21 22 22 22 25 27 26 29 34 36 38 35 33 30 32 30 29 25
18 18 16 16 17 15 12 10 6 5 4 3 2 3 6 9 11 14 13 14 16 17 17 19 20 19 18 19 21 23 27 29 31 33 29 32 33 34 36 37 35 23 21
17 16 16 15 13 12 10 8 7 4 1 3 6 8 10 12 13 12 13 17 18 17 15 14 14 15 16 17 19 23 24 26 31 34 31 24 35 39 41 37 29 28 32
17 16 14 11 10 8 6 5 4 4 5 7 9 11 11 12 13 9 12 16 16 14 14 12 11 12 15 16 16 18 22 26 28 32 25 28 35 33 27 29 26 39 36
Wind_Direction
223 220 218 216 211 209 208 207 208 209 216 215 217 240 250 250 256 263 271 268 259 271 285 291 298 295 301 309 324 324 324 326 328 326 321 317 314 308 305 303 301 299 297
229 227 225 223 218 215 216 214 214 217 219 218 227 244 250 254 263 270 271 265 261 267 274 273 278 281 293 310 316 320 325 328 328 325 320 318 314 310 308 305 301 299 298
235 232 230 226 222 222 221 221 218 219 220 229 239 252 254 254 258 266 266 259 256 257 254 257 254 261 276 297 307 316 322 325 325 325 320 319 314 309 307 306 304 301 300
242 238 233 228 222 223 225 225 223 225 227 232 241 253 255 256 261 264 262 261 256 251 252 253 257 255 275 287 297 309 315 321 323 324 321 317 314 311 306 303 301 304 306
244 241 237 231 226 227 229 228 227 228 235 237 243 250 255 256 258 260 259 258 249 248 249 253 256 261 278 284 292 302 308 312 315 315 315 313 312 308 306 302 305 309 310
244 240 240 232 229 231 230 229 228 230 236 236 242 251 254 252 253 256 256 253 249 249 249 254 259 265 274 278 284 293 301 306 306 308 308 306 305 305 306 305 303 304 305
248 242 239 233 227 232 232 234 231 231 235 232 238 246 250 250 251 252 252 251 248 248 249 255 262 266 272 278 285 292 299 301 299 300 300 300 301 301 302 300 297 296 298
249 246 243 236 230 230 230 232 231 232 231 230 233 238 246 251 249 249 250 248 247 246 249 255 260 264 270 278 285 293 300 297 297 295 294 293 296 297 294 293 293 293 292
245 245 244 243 237 232 235 234 234 232 232 229 231 227 218 230 239 242 245 247 247 248 249 256 262 265 270 277 284 294 297 297 296 291 290 291 291 293 291 289 288 289 287
246 245 246 245 246 244 239 238 237 237 234 232 232 234 235 243 230 242 242 242 245 246 251 254 258 264 270 277 285 291 294 295 295 293 293 295 295 294 293 290 288 287 286
248 244 243 245 245 244 246 245 239 236 238 235 234 240 238 241 244 247 257 249 249 245 246 249 254 261 269 277 285 288 290 291 292 293 296 297 295 295 292 288 286 283 283
251 250 246 244 244 245 244 246 246 241 241 241 237 243 245 245 248 246 244 249 247 245 247 249 253 262 269 277 284 286 287 290 290 295 297 297 297 295 291 287 284 282 282
256 257 253 249 247 246 244 247 248 245 242 240 240 241 247 249 251 249 250 246 245 238 244 250 255 263 269 275 279 282 286 291 297 298 299 299 295 293 291 288 285 284 282
258 258 259 254 250 250 249 247 247 245 241 238 238 240 244 245 244 249 236 252 239 232 248 248 264 268 272 278 281 284 293 297 300 302 302 300 298 294 290 287 286 284 281
266 265 260 256 251 247 248 249 245 244 237 234 238 239 236 236 238 242 242 226 236 240 238 256 262 279 279 285 291 295 298 301 302 304 304 304 301 295 292 289 288 285 282
265 266 266 263 257 250 245 243 237 228 229 230 233 235 231 231 231 228 232 244 244 258 260 271 273 278 284 286 292 296 299 302 304 305 306 304 300 295 290 289 287 283 280
262 259 258 259 259 252 240 232 225 224 221 223 223 222 220 223 227 230 234 257 267 268 281 284 282 281 286 292 292 293 298 300 303 305 306 302 297 296 292 287 284 282 280
255 254 255 255 247 233 225 216 215 210 212 211 208 209 214 229 240 254 261 258 273 288 290 288 286 295 296 298 299 300 303 305 307 308 303 299 300 299 297 292 288 285 284
252 248 238 237 230 214 204 200 202 202 200 200 204 216 228 240 248 257 263 282 304 283 281 286 294 302 298 301 305 309 311 309 309 312 312 309 305 301 297 295 292 285 282
234 233 226 215 204 192 189 189 192 188 191 204 216 225 234 243 259 282 307 303 287 283 290 294 297 300 302 307 309 313 314 315 314 317 314 314 311 307 305 301 297 297 291
211 200 197 188 180 177 177 180 182 183 191 201 218 227 242 268 301 274 283 292 289 291 297 293 297 301 307 310 311 314 311 314 315 324 325 322 318 316 317 311 307 298 292
179 174 164 157 158 162 159 161 175 180 187 194 214 242 297 283 291 298 286 291 290 298 294 296 301 303 308 308 312 312 312 315 316 322 318 312 317 316 317 312 309 306 302
146 144 141 142 145 142 154 161 159 159 184 201 269 240 270 281 287 296 295 296 292 285 292 296 297 299 300 309 312 314 313 310 308 315 313 307 317 312 317 314 314 313 304
136 137 131 132 145 136 140 143 138 114 132 163 216 271 294 303 306 307 306 301 302 306 306 298 295 300 306 313 310 307 308 307 305 314 311 303 321 316 316 315 318 315 310
124 129 135 139 137 127 101 105 120 107 59 339 325 321 315 319 322 320 315 308 314 314 306 301 302 305 308 310 310 306 311 309 312 316 318 305 322 316 316 318 320 322 320
127 131 134 126 99 103 109 93 68 30 344 333 325 319 320 323 327 325 299 304 309 319 315 317 315 315 314 315 314 311 314 312 314 315 317 313 315 319 316 311 309 315 315